Year,Month,Day,Hour,Minute,Value (Times are PST for temperature in C)
2015,09,15,00,00,8.30
2015,09,15,00,01,8.30
2015,09,15,00,02,8.30
2015,09,15,00,03,8.30
2015,09,15,00,04,8.30
2015,09,15,00,05,8.30
2015,09,15,00,06,8.30
2015,09,15,00,07,8.20
2015,09,15,00,08,8.20
2015,09,15,00,09,8.20
2015,09,15,00,10,8.10
2015,09,15,00,11,8.10
2015,09,15,00,12,8.10
2015,09,15,00,13,8.10
2015,09,15,00,14,8.10
2015,09,15,00,15,8.20
2015,09,15,00,16,8.20
2015,09,15,00,17,8.30
2015,09,15,00,18,8.30
2015,09,15,00,19,8.30
2015,09,15,00,20,8.40
2015,09,15,00,21,8.40
2015,09,15,00,22,8.50
2015,09,15,00,23,8.50
2015,09,15,00,24,8.50
2015,09,15,00,25,8.60
2015,09,15,00,26,8.50
2015,09,15,00,27,8.50
2015,09,15,00,28,8.50
2015,09,15,00,29,8.50
2015,09,15,00,30,8.30
2015,09,15,00,31,8.10
2015,09,15,00,32,8.10
2015,09,15,00,33,8.10
2015,09,15,00,34,8.10
2015,09,15,00,35,8.10
2015,09,15,00,36,8.10
2015,09,15,00,37,8.10
2015,09,15,00,38,8.10
2015,09,15,00,39,8.10
2015,09,15,00,40,8.10
2015,09,15,00,41,8.10
2015,09,15,00,42,8.10
2015,09,15,00,43,8.10
2015,09,15,00,44,8.10
2015,09,15,00,45,8.10
2015,09,15,00,46,8.10
2015,09,15,00,47,8.00
2015,09,15,00,48,8.00
2015,09,15,00,49,8.00
2015,09,15,00,50,7.90
2015,09,15,00,51,7.90
2015,09,15,00,52,7.80
2015,09,15,00,53,7.80
2015,09,15,00,54,7.70
2015,09,15,00,55,7.70
2015,09,15,00,56,7.70
2015,09,15,00,57,7.70
2015,09,15,00,58,7.80
2015,09,15,00,59,7.80
2015,09,15,01,00,7.90
2015,09,15,01,01,7.90
2015,09,15,01,02,7.90
2015,09,15,01,03,7.90
2015,09,15,01,04,7.90
2015,09,15,01,05,7.80
2015,09,15,01,06,7.80
2015,09,15,01,07,7.80
2015,09,15,01,08,7.80
2015,09,15,01,09,7.80
2015,09,15,01,10,7.80
2015,09,15,01,11,7.80
2015,09,15,01,12,7.70
2015,09,15,01,13,7.70
2015,09,15,01,14,7.70
2015,09,15,01,15,7.70
2015,09,15,01,16,7.70
2015,09,15,01,17,7.70
2015,09,15,01,18,7.70
2015,09,15,01,19,7.80
2015,09,15,01,20,7.80
2015,09,15,01,21,7.80
2015,09,15,01,22,7.80
2015,09,15,01,23,7.80
2015,09,15,01,24,7.80
2015,09,15,01,25,7.90
2015,09,15,01,26,7.90
2015,09,15,01,27,7.90
2015,09,15,01,28,7.90
2015,09,15,01,29,7.90
2015,09,15,01,30,7.90
2015,09,15,01,31,7.90
2015,09,15,01,32,7.80
2015,09,15,01,33,7.80
2015,09,15,01,34,7.70
2015,09,15,01,35,7.60
2015,09,15,01,36,7.50
2015,09,15,01,37,7.50
2015,09,15,01,38,7.40
2015,09,15,01,39,7.40
2015,09,15,01,40,7.40
2015,09,15,01,41,7.40
2015,09,15,01,42,7.50
2015,09,15,01,43,7.50
2015,09,15,01,44,7.60
2015,09,15,01,45,7.60
2015,09,15,01,46,7.60
2015,09,15,01,47,7.60
2015,09,15,01,48,7.70
2015,09,15,01,49,7.70
2015,09,15,01,50,7.70
2015,09,15,01,51,7.70
2015,09,15,01,52,7.70
2015,09,15,01,53,7.70
2015,09,15,01,54,7.80
2015,09,15,01,55,7.80
2015,09,15,01,56,7.70
2015,09,15,01,57,7.70
2015,09,15,01,58,7.70
2015,09,15,01,59,7.60
2015,09,15,02,00,7.60
2015,09,15,02,01,7.70
2015,09,15,02,02,7.70
2015,09,15,02,03,7.70
2015,09,15,02,04,7.70
2015,09,15,02,05,7.80
2015,09,15,02,06,7.80
2015,09,15,02,07,7.80
2015,09,15,02,08,7.80
2015,09,15,02,09,7.80
2015,09,15,02,10,7.80
2015,09,15,02,11,7.80
2015,09,15,02,12,7.80
2015,09,15,02,13,7.80
2015,09,15,02,14,7.80
2015,09,15,02,15,7.80
2015,09,15,02,16,7.90
2015,09,15,02,17,7.90
2015,09,15,02,18,7.90
2015,09,15,02,19,7.90
2015,09,15,02,20,7.90
2015,09,15,02,21,7.90
2015,09,15,02,22,8.00
2015,09,15,02,23,8.00
2015,09,15,02,24,8.10
2015,09,15,02,25,8.10
2015,09,15,02,26,8.10
2015,09,15,02,27,8.10
2015,09,15,02,28,8.10
2015,09,15,02,29,8.10
2015,09,15,02,30,8.00
2015,09,15,02,31,8.00
2015,09,15,02,32,8.00
2015,09,15,02,33,8.00
2015,09,15,02,34,8.00
2015,09,15,02,35,7.90
2015,09,15,02,36,7.90
2015,09,15,02,37,7.90
2015,09,15,02,38,7.90
2015,09,15,02,39,7.80
2015,09,15,02,40,7.80
2015,09,15,02,41,7.80
2015,09,15,02,42,7.70
2015,09,15,02,43,7.70
2015,09,15,02,44,7.70
2015,09,15,02,45,7.70
2015,09,15,02,46,7.80
2015,09,15,02,47,7.80
2015,09,15,02,48,7.80
2015,09,15,02,49,7.80
2015,09,15,02,50,7.80
2015,09,15,02,51,7.80
2015,09,15,02,52,7.80
2015,09,15,02,53,7.90
2015,09,15,02,54,7.90
2015,09,15,02,55,7.90
2015,09,15,02,56,7.90
2015,09,15,02,57,7.90
2015,09,15,02,58,7.90
2015,09,15,02,59,7.90
2015,09,15,03,00,7.90
2015,09,15,03,01,7.80
2015,09,15,03,02,7.90
2015,09,15,03,03,7.90
2015,09,15,03,04,7.90
2015,09,15,03,05,7.90
2015,09,15,03,06,7.90
2015,09,15,03,07,7.90
2015,09,15,03,08,7.90
2015,09,15,03,09,8.00
2015,09,15,03,10,8.00
2015,09,15,03,11,8.00
2015,09,15,03,12,8.10
2015,09,15,03,13,8.10
2015,09,15,03,14,8.10
2015,09,15,03,15,8.10
2015,09,15,03,16,8.10
2015,09,15,03,17,8.20
2015,09,15,03,18,8.20
2015,09,15,03,19,8.20
2015,09,15,03,20,8.20
2015,09,15,03,21,8.20
2015,09,15,03,22,8.20
2015,09,15,03,23,8.20
2015,09,15,03,24,8.20
2015,09,15,03,25,8.20
2015,09,15,03,26,8.20
2015,09,15,03,27,8.20
2015,09,15,03,28,8.30
2015,09,15,03,29,8.30
2015,09,15,03,30,8.30
2015,09,15,03,31,8.30
2015,09,15,03,32,8.30
2015,09,15,03,33,8.40
2015,09,15,03,34,8.40
2015,09,15,03,35,8.40
2015,09,15,03,36,8.40
2015,09,15,03,37,8.40
2015,09,15,03,38,8.50
2015,09,15,03,39,8.50
2015,09,15,03,40,8.50
2015,09,15,03,41,8.50
2015,09,15,03,42,8.40
2015,09,15,03,43,8.40
2015,09,15,03,44,8.40
2015,09,15,03,45,8.30
2015,09,15,03,46,8.20
2015,09,15,03,47,8.20
2015,09,15,03,48,8.20
2015,09,15,03,49,8.20
2015,09,15,03,50,8.20
2015,09,15,03,51,8.20
2015,09,15,03,52,8.20
2015,09,15,03,53,8.20
2015,09,15,03,54,8.20
2015,09,15,03,55,8.30
2015,09,15,03,56,8.30
2015,09,15,03,57,8.30
2015,09,15,03,58,8.30
2015,09,15,03,59,8.30
2015,09,15,04,00,8.30
2015,09,15,04,01,8.30
2015,09,15,04,02,8.30
2015,09,15,04,03,8.20
2015,09,15,04,04,8.20
2015,09,15,04,05,8.10
2015,09,15,04,06,8.00
2015,09,15,04,07,8.00
2015,09,15,04,08,7.90
2015,09,15,04,09,8.00
2015,09,15,04,10,8.00
2015,09,15,04,11,8.00
2015,09,15,04,12,8.00
2015,09,15,04,13,8.00
2015,09,15,04,14,8.10
2015,09,15,04,15,8.10
2015,09,15,04,16,8.10
2015,09,15,04,17,8.10
2015,09,15,04,18,8.10
2015,09,15,04,19,8.20
2015,09,15,04,20,8.20
2015,09,15,04,21,8.20
2015,09,15,04,22,8.20
2015,09,15,04,23,8.10
2015,09,15,04,24,8.10
2015,09,15,04,25,8.00
2015,09,15,04,26,8.00
2015,09,15,04,27,8.00
2015,09,15,04,28,8.00
2015,09,15,04,29,8.10
2015,09,15,04,30,8.10
2015,09,15,04,31,8.10
2015,09,15,04,32,8.10
2015,09,15,04,33,8.10
2015,09,15,04,34,8.10
2015,09,15,04,35,8.10
2015,09,15,04,36,8.10
2015,09,15,04,37,8.20
2015,09,15,04,38,8.20
2015,09,15,04,39,8.20
2015,09,15,04,40,8.20
2015,09,15,04,41,8.20
2015,09,15,04,42,8.10
2015,09,15,04,43,8.00
2015,09,15,04,44,7.90
2015,09,15,04,45,7.80
2015,09,15,04,46,7.80
2015,09,15,04,47,7.80
2015,09,15,04,48,7.80
2015,09,15,04,49,7.80
2015,09,15,04,50,7.90
2015,09,15,04,51,7.90
2015,09,15,04,52,7.90
2015,09,15,04,53,7.90
2015,09,15,04,54,7.80
2015,09,15,04,55,7.80
2015,09,15,04,56,7.90
2015,09,15,04,57,7.90
2015,09,15,04,58,7.90
2015,09,15,04,59,8.00
2015,09,15,05,00,8.00
2015,09,15,05,01,8.10
2015,09,15,05,02,8.10
2015,09,15,05,03,8.10
2015,09,15,05,04,8.00
2015,09,15,05,05,8.00
2015,09,15,05,06,8.00
2015,09,15,05,07,8.00
2015,09,15,05,08,8.00
2015,09,15,05,09,8.10
2015,09,15,05,10,8.10
2015,09,15,05,11,8.20
2015,09,15,05,12,8.20
2015,09,15,05,13,8.20
2015,09,15,05,14,8.30
2015,09,15,05,15,8.30
2015,09,15,05,16,8.20
2015,09,15,05,17,8.30
2015,09,15,05,18,8.20
2015,09,15,05,19,8.30
2015,09,15,05,20,8.30
2015,09,15,05,21,8.30
2015,09,15,05,22,8.30
2015,09,15,05,23,8.30
2015,09,15,05,24,8.30
2015,09,15,05,25,8.30
2015,09,15,05,26,8.30
2015,09,15,05,27,8.30
2015,09,15,05,28,8.30
2015,09,15,05,29,8.30
2015,09,15,05,30,8.30
2015,09,15,05,31,8.30
2015,09,15,05,32,8.30
2015,09,15,05,33,8.30
2015,09,15,05,34,8.30
2015,09,15,05,35,8.30
2015,09,15,05,36,8.30
2015,09,15,05,37,8.30
2015,09,15,05,38,8.30
2015,09,15,05,39,8.30
2015,09,15,05,40,8.20
2015,09,15,05,41,8.20
2015,09,15,05,42,8.30
2015,09,15,05,43,8.20
2015,09,15,05,44,8.20
2015,09,15,05,45,8.20
2015,09,15,05,46,8.20
2015,09,15,05,47,8.20
2015,09,15,05,48,8.20
2015,09,15,05,49,8.20
2015,09,15,05,50,8.10
2015,09,15,05,51,8.10
2015,09,15,05,52,8.10
2015,09,15,05,53,8.10
2015,09,15,05,54,8.10
2015,09,15,05,55,8.10
2015,09,15,05,56,8.20
2015,09,15,05,57,8.20
2015,09,15,05,58,8.20
2015,09,15,05,59,8.10
2015,09,15,06,00,8.10
2015,09,15,06,01,8.10
2015,09,15,06,02,8.10
2015,09,15,06,03,8.00
2015,09,15,06,04,8.00
2015,09,15,06,05,8.00
2015,09,15,06,06,8.00
2015,09,15,06,07,8.00
2015,09,15,06,08,8.00
2015,09,15,06,09,7.90
2015,09,15,06,10,7.90
2015,09,15,06,11,7.90
2015,09,15,06,12,7.90
2015,09,15,06,13,7.90
2015,09,15,06,14,8.10
2015,09,15,06,15,8.20
2015,09,15,06,16,8.20
2015,09,15,06,17,8.30
2015,09,15,06,18,8.40
2015,09,15,06,19,8.50
2015,09,15,06,20,8.50
2015,09,15,06,21,8.60
2015,09,15,06,22,8.70
2015,09,15,06,23,8.80
2015,09,15,06,24,8.90
2015,09,15,06,25,9.00
2015,09,15,06,26,9.10
2015,09,15,06,27,9.20
2015,09,15,06,28,9.20
2015,09,15,06,29,9.30
2015,09,15,06,30,9.30
2015,09,15,06,31,9.40
2015,09,15,06,32,9.50
2015,09,15,06,33,9.50
2015,09,15,06,34,9.60
2015,09,15,06,35,9.60
2015,09,15,06,36,9.50
2015,09,15,06,37,9.60
2015,09,15,06,38,9.60
2015,09,15,06,39,9.60
2015,09,15,06,40,9.60
2015,09,15,06,41,9.60
2015,09,15,06,42,9.50
2015,09,15,06,43,9.40
2015,09,15,06,44,9.30
2015,09,15,06,45,9.20
2015,09,15,06,46,9.20
2015,09,15,06,47,9.30
2015,09,15,06,48,9.40
2015,09,15,06,49,9.40
2015,09,15,06,50,9.50
2015,09,15,06,51,9.50
2015,09,15,06,52,9.50
2015,09,15,06,53,9.40
2015,09,15,06,54,9.30
2015,09,15,06,55,9.30
2015,09,15,06,56,9.20
2015,09,15,06,57,9.10
2015,09,15,06,58,9.10
2015,09,15,06,59,9.10
2015,09,15,07,00,9.00
2015,09,15,07,01,9.00
2015,09,15,07,02,9.00
2015,09,15,07,03,8.90
2015,09,15,07,04,8.80
2015,09,15,07,05,8.70
2015,09,15,07,06,8.60
2015,09,15,07,07,8.60
2015,09,15,07,08,8.50
2015,09,15,07,09,8.40
2015,09,15,07,10,8.40
2015,09,15,07,11,8.40
2015,09,15,07,12,8.40
2015,09,15,07,13,8.40
2015,09,15,07,14,8.40
2015,09,15,07,15,8.40
2015,09,15,07,16,8.40
2015,09,15,07,17,8.40
2015,09,15,07,18,8.30
2015,09,15,07,19,8.30
2015,09,15,07,20,8.20
2015,09,15,07,21,8.10
2015,09,15,07,22,8.10
2015,09,15,07,23,8.00
2015,09,15,07,24,8.00
2015,09,15,07,25,8.00
2015,09,15,07,26,8.00
2015,09,15,07,27,8.00
2015,09,15,07,28,8.00
2015,09,15,07,29,8.10
2015,09,15,07,30,8.20
2015,09,15,07,31,8.20
2015,09,15,07,32,8.30
2015,09,15,07,33,8.40
2015,09,15,07,34,8.50
2015,09,15,07,35,8.70
2015,09,15,07,36,8.90
2015,09,15,07,37,9.00
2015,09,15,07,38,9.20
2015,09,15,07,39,9.30
2015,09,15,07,40,9.40
2015,09,15,07,41,9.50
2015,09,15,07,42,9.50
2015,09,15,07,43,9.60
2015,09,15,07,44,9.60
2015,09,15,07,45,9.70
2015,09,15,07,46,9.70
2015,09,15,07,47,9.70
2015,09,15,07,48,9.80
2015,09,15,07,49,9.80
2015,09,15,07,50,9.80
2015,09,15,07,51,9.90
2015,09,15,07,52,9.90
2015,09,15,07,53,9.90
2015,09,15,07,54,9.90
2015,09,15,07,55,9.90
2015,09,15,07,56,9.90
2015,09,15,07,57,9.90
2015,09,15,07,58,9.90
2015,09,15,07,59,9.90
2015,09,15,08,00,9.90
2015,09,15,08,01,10.00
2015,09,15,08,02,10.00
2015,09,15,08,03,10.00
2015,09,15,08,04,10.00
2015,09,15,08,05,10.10
2015,09,15,08,06,10.10
2015,09,15,08,07,10.10
2015,09,15,08,08,10.20
2015,09,15,08,09,10.20
2015,09,15,08,10,10.30
2015,09,15,08,11,10.30
2015,09,15,08,12,10.30
2015,09,15,08,13,10.30
2015,09,15,08,14,10.40
2015,09,15,08,15,10.40
2015,09,15,08,16,10.40
2015,09,15,08,17,10.40
2015,09,15,08,18,10.50
2015,09,15,08,19,10.60
2015,09,15,08,20,10.60
2015,09,15,08,21,10.70
2015,09,15,08,22,10.70
2015,09,15,08,23,10.70
2015,09,15,08,24,10.80
2015,09,15,08,25,10.80
2015,09,15,08,26,10.90
2015,09,15,08,27,10.90
2015,09,15,08,28,11.00
2015,09,15,08,29,11.00
2015,09,15,08,30,11.10
2015,09,15,08,31,11.10
2015,09,15,08,32,11.10
2015,09,15,08,33,11.20
2015,09,15,08,34,11.20
2015,09,15,08,35,11.20
2015,09,15,08,36,11.30
2015,09,15,08,37,11.30
2015,09,15,08,38,11.30
2015,09,15,08,39,11.30
2015,09,15,08,40,11.40
2015,09,15,08,41,11.40
2015,09,15,08,42,11.40
2015,09,15,08,43,11.50
2015,09,15,08,44,11.50
2015,09,15,08,45,11.60
2015,09,15,08,46,11.60
2015,09,15,08,47,11.70
2015,09,15,08,48,11.80
2015,09,15,08,49,11.80
2015,09,15,08,50,11.90
2015,09,15,08,51,11.90
2015,09,15,08,52,12.00
2015,09,15,08,53,12.10
2015,09,15,08,54,12.10
2015,09,15,08,55,12.20
2015,09,15,08,56,12.20
2015,09,15,08,57,12.20
2015,09,15,08,58,12.20
2015,09,15,08,59,12.20
2015,09,15,09,00,12.20
2015,09,15,09,01,12.30
2015,09,15,09,02,12.40
2015,09,15,09,03,12.40
2015,09,15,09,04,12.50
2015,09,15,09,05,12.50
2015,09,15,09,06,12.60
2015,09,15,09,07,12.60
2015,09,15,09,08,12.70
2015,09,15,09,09,12.70
2015,09,15,09,10,12.70
2015,09,15,09,11,12.80
2015,09,15,09,12,12.80
2015,09,15,09,13,12.80
2015,09,15,09,14,12.80
2015,09,15,09,15,12.80
2015,09,15,09,16,12.80
2015,09,15,09,17,12.80
2015,09,15,09,18,12.80
2015,09,15,09,19,12.80
2015,09,15,09,20,12.80
2015,09,15,09,21,12.80
2015,09,15,09,22,12.80
2015,09,15,09,23,12.80
2015,09,15,09,24,12.90
2015,09,15,09,25,12.90
2015,09,15,09,26,12.90
2015,09,15,09,27,13.00
2015,09,15,09,28,13.00
2015,09,15,09,29,13.00
2015,09,15,09,30,13.10
2015,09,15,09,31,13.10
2015,09,15,09,32,13.10
2015,09,15,09,33,13.10
2015,09,15,09,34,13.10
2015,09,15,09,35,13.20
2015,09,15,09,36,13.20
2015,09,15,09,37,13.20
2015,09,15,09,38,13.20
2015,09,15,09,39,13.20
2015,09,15,09,40,13.20
2015,09,15,09,41,13.20
2015,09,15,09,42,13.10
2015,09,15,09,43,13.20
2015,09,15,09,44,13.20
2015,09,15,09,45,13.20
2015,09,15,09,46,13.30
2015,09,15,09,47,13.30
2015,09,15,09,48,13.30
2015,09,15,09,49,13.30
2015,09,15,09,50,13.30
2015,09,15,09,51,13.30
2015,09,15,09,52,13.30
2015,09,15,09,53,13.40
2015,09,15,09,54,13.40
2015,09,15,09,55,13.50
2015,09,15,09,56,13.60
2015,09,15,09,57,13.50
2015,09,15,09,58,13.40
2015,09,15,09,59,13.30
2015,09,15,10,00,13.20
2015,09,15,10,01,13.10
2015,09,15,10,02,13.00
2015,09,15,10,03,12.90
2015,09,15,10,04,12.90
2015,09,15,10,05,12.90
2015,09,15,10,06,13.00
2015,09,15,10,07,13.10
2015,09,15,10,08,13.10
2015,09,15,10,09,13.10
2015,09,15,10,10,13.10
2015,09,15,10,11,13.10
2015,09,15,10,12,13.10
2015,09,15,10,13,13.20
2015,09,15,10,14,13.20
2015,09,15,10,15,13.20
2015,09,15,10,16,13.30
2015,09,15,10,17,13.30
2015,09,15,10,18,13.30
2015,09,15,10,19,13.40
2015,09,15,10,20,13.50
2015,09,15,10,21,13.50
2015,09,15,10,22,13.60
2015,09,15,10,23,13.60
2015,09,15,10,24,13.60
2015,09,15,10,25,13.60
2015,09,15,10,26,13.60
2015,09,15,10,27,13.60
2015,09,15,10,28,13.70
2015,09,15,10,29,13.70
2015,09,15,10,30,13.80
2015,09,15,10,31,13.80
2015,09,15,10,32,13.80
2015,09,15,10,33,13.80
2015,09,15,10,34,13.80
2015,09,15,10,35,13.70
2015,09,15,10,36,13.70
2015,09,15,10,37,13.60
2015,09,15,10,38,13.50
2015,09,15,10,39,13.40
2015,09,15,10,40,13.30
2015,09,15,10,41,13.30
2015,09,15,10,42,13.30
2015,09,15,10,43,13.30
2015,09,15,10,44,13.30
2015,09,15,10,45,13.30
2015,09,15,10,46,13.30
2015,09,15,10,47,13.30
2015,09,15,10,48,13.30
2015,09,15,10,49,13.40
2015,09,15,10,50,13.40
2015,09,15,10,51,13.40
2015,09,15,10,52,13.40
2015,09,15,10,53,13.30
2015,09,15,10,54,13.20
2015,09,15,10,55,13.20
2015,09,15,10,56,13.10
2015,09,15,10,57,13.00
2015,09,15,10,58,12.90
2015,09,15,10,59,12.70
2015,09,15,11,00,12.60
2015,09,15,11,01,12.40
2015,09,15,11,02,12.30
2015,09,15,11,03,12.30
2015,09,15,11,04,12.20
2015,09,15,11,05,12.10
2015,09,15,11,06,12.10
2015,09,15,11,07,12.10
2015,09,15,11,08,12.20
2015,09,15,11,09,12.20
2015,09,15,11,10,12.20
2015,09,15,11,11,12.40
2015,09,15,11,12,12.50
2015,09,15,11,13,12.60
2015,09,15,11,14,12.70
2015,09,15,11,15,12.80
2015,09,15,11,16,12.90
2015,09,15,11,17,13.10
2015,09,15,11,18,13.10
2015,09,15,11,19,13.30
2015,09,15,11,20,13.40
2015,09,15,11,21,13.40
2015,09,15,11,22,13.50
2015,09,15,11,23,13.40
2015,09,15,11,24,13.30
2015,09,15,11,25,13.20
2015,09,15,11,26,13.20
2015,09,15,11,27,13.30
2015,09,15,11,28,13.30
2015,09,15,11,29,13.50
2015,09,15,11,30,13.40
2015,09,15,11,31,13.40
2015,09,15,11,32,13.30
2015,09,15,11,33,13.30
2015,09,15,11,34,13.20
2015,09,15,11,35,13.20
2015,09,15,11,36,13.20
2015,09,15,11,37,13.20
2015,09,15,11,38,13.20
2015,09,15,11,39,13.20
2015,09,15,11,40,13.20
2015,09,15,11,41,13.30
2015,09,15,11,42,13.30
2015,09,15,11,43,13.30
2015,09,15,11,44,13.40
2015,09,15,11,45,13.50
2015,09,15,11,46,13.60
2015,09,15,11,47,13.80
2015,09,15,11,48,13.90
2015,09,15,11,49,14.00
2015,09,15,11,50,13.90
2015,09,15,11,51,13.90
2015,09,15,11,52,13.90
2015,09,15,11,53,13.80
2015,09,15,11,54,13.80
2015,09,15,11,55,13.80
2015,09,15,11,56,13.80
2015,09,15,11,57,13.90
2015,09,15,11,58,13.90
2015,09,15,11,59,13.90
2015,09,15,12,00,13.80
2015,09,15,12,01,13.80
2015,09,15,12,02,13.70
2015,09,15,12,03,13.70
2015,09,15,12,04,13.70
2015,09,15,12,05,13.70
2015,09,15,12,06,13.70
2015,09,15,12,07,13.70
2015,09,15,12,08,13.60
2015,09,15,12,09,13.60
2015,09,15,12,10,13.60
2015,09,15,12,11,13.70
2015,09,15,12,12,13.70
2015,09,15,12,13,13.70
2015,09,15,12,14,13.70
2015,09,15,12,15,13.70
2015,09,15,12,16,13.70
2015,09,15,12,17,13.70
2015,09,15,12,18,13.70
2015,09,15,12,19,13.70
2015,09,15,12,20,13.80
2015,09,15,12,21,13.80
2015,09,15,12,22,13.90
2015,09,15,12,23,13.90
2015,09,15,12,24,14.00
2015,09,15,12,25,14.00
2015,09,15,12,26,14.00
2015,09,15,12,27,14.00
2015,09,15,12,28,14.00
2015,09,15,12,29,13.90
2015,09,15,12,30,13.80
2015,09,15,12,31,13.80
2015,09,15,12,32,13.80
2015,09,15,12,33,13.80
2015,09,15,12,34,13.80
2015,09,15,12,35,13.80
2015,09,15,12,36,13.80
2015,09,15,12,37,13.80
2015,09,15,12,38,13.80
2015,09,15,12,39,13.80
2015,09,15,12,40,13.80
2015,09,15,12,41,13.80
2015,09,15,12,42,13.80
2015,09,15,12,43,13.70
2015,09,15,12,44,13.60
2015,09,15,12,45,13.60
2015,09,15,12,46,13.70
2015,09,15,12,47,13.80
2015,09,15,12,48,13.90
2015,09,15,12,49,13.90
2015,09,15,12,50,13.90
2015,09,15,12,51,13.80
2015,09,15,12,52,13.80
2015,09,15,12,53,13.80
2015,09,15,12,54,13.70
2015,09,15,12,55,13.70
2015,09,15,12,56,13.60
2015,09,15,12,57,13.60
2015,09,15,12,58,13.60
2015,09,15,12,59,13.60
2015,09,15,13,00,13.70
2015,09,15,13,01,13.70
2015,09,15,13,02,13.60
2015,09,15,13,03,13.60
2015,09,15,13,04,13.70
2015,09,15,13,05,13.70
2015,09,15,13,06,13.80
2015,09,15,13,07,13.90
2015,09,15,13,08,13.90
2015,09,15,13,09,13.90
2015,09,15,13,10,13.90
2015,09,15,13,11,13.90
2015,09,15,13,12,14.00
2015,09,15,13,13,14.10
2015,09,15,13,14,14.20
2015,09,15,13,15,14.20
2015,09,15,13,16,14.20
2015,09,15,13,17,14.30
2015,09,15,13,18,14.30
2015,09,15,13,19,14.30
2015,09,15,13,20,14.30
2015,09,15,13,21,14.30
2015,09,15,13,22,14.30
2015,09,15,13,23,14.40
2015,09,15,13,24,14.40
2015,09,15,13,25,14.40
2015,09,15,13,26,14.40
2015,09,15,13,27,14.30
2015,09,15,13,28,14.20
2015,09,15,13,29,14.20
2015,09,15,13,30,14.30
2015,09,15,13,31,14.40
2015,09,15,13,32,14.40
2015,09,15,13,33,14.40
2015,09,15,13,34,14.40
2015,09,15,13,35,14.40
2015,09,15,13,36,14.50
2015,09,15,13,37,14.40
2015,09,15,13,38,14.40
2015,09,15,13,39,14.30
2015,09,15,13,40,14.30
2015,09,15,13,41,14.40
2015,09,15,13,42,14.40
2015,09,15,13,43,14.50
2015,09,15,13,44,14.50
2015,09,15,13,45,14.50
2015,09,15,13,46,14.50
2015,09,15,13,47,14.40
2015,09,15,13,48,14.40
2015,09,15,13,49,14.40
2015,09,15,13,50,14.40
2015,09,15,13,51,14.40
2015,09,15,13,52,14.40
2015,09,15,13,53,14.40
2015,09,15,13,54,14.50
2015,09,15,13,55,14.50
2015,09,15,13,56,14.60
2015,09,15,13,57,14.60
2015,09,15,13,58,14.50
2015,09,15,13,59,14.50
2015,09,15,14,00,14.40
2015,09,15,14,01,14.40
2015,09,15,14,02,14.40
2015,09,15,14,03,14.40
2015,09,15,14,04,14.40
2015,09,15,14,05,14.40
2015,09,15,14,06,14.40
2015,09,15,14,07,14.40
2015,09,15,14,08,14.40
2015,09,15,14,09,14.50
2015,09,15,14,10,14.50
2015,09,15,14,11,14.60
2015,09,15,14,12,14.60
2015,09,15,14,13,14.60
2015,09,15,14,14,14.60
2015,09,15,14,15,14.60
2015,09,15,14,16,14.60
2015,09,15,14,17,14.60
2015,09,15,14,18,14.60
2015,09,15,14,19,14.70
2015,09,15,14,20,14.70
2015,09,15,14,21,14.80
2015,09,15,14,22,14.80
2015,09,15,14,23,14.80
2015,09,15,14,24,14.80
2015,09,15,14,25,14.80
2015,09,15,14,26,14.80
2015,09,15,14,27,14.80
2015,09,15,14,28,14.90
2015,09,15,14,29,14.90
2015,09,15,14,30,14.90
2015,09,15,14,31,14.90
2015,09,15,14,32,15.00
2015,09,15,14,33,15.00
2015,09,15,14,34,15.00
2015,09,15,14,35,15.00
2015,09,15,14,36,15.10
2015,09,15,14,37,15.10
2015,09,15,14,38,15.20
2015,09,15,14,39,15.20
2015,09,15,14,40,15.20
2015,09,15,14,41,15.30
2015,09,15,14,42,15.30
2015,09,15,14,43,15.30
2015,09,15,14,44,15.30
2015,09,15,14,45,15.30
2015,09,15,14,46,15.30
2015,09,15,14,47,15.20
2015,09,15,14,48,15.10
2015,09,15,14,49,15.10
2015,09,15,14,50,15.10
2015,09,15,14,51,15.10
2015,09,15,14,52,15.10
2015,09,15,14,53,15.10
2015,09,15,14,54,15.10
2015,09,15,14,55,15.20
2015,09,15,14,56,15.20
2015,09,15,14,57,15.20
2015,09,15,14,58,15.20
2015,09,15,14,59,15.20
2015,09,15,15,00,15.20
2015,09,15,15,01,15.20
2015,09,15,15,02,15.20
2015,09,15,15,03,15.20
2015,09,15,15,04,15.30
2015,09,15,15,05,15.30
2015,09,15,15,06,15.30
2015,09,15,15,07,15.30
2015,09,15,15,08,15.30
2015,09,15,15,09,15.30
2015,09,15,15,10,15.30
2015,09,15,15,11,15.30
2015,09,15,15,12,15.30
2015,09,15,15,13,15.30
2015,09,15,15,14,15.30
2015,09,15,15,15,15.40
2015,09,15,15,16,15.40
2015,09,15,15,17,15.40
2015,09,15,15,18,15.50
2015,09,15,15,19,15.50
2015,09,15,15,20,15.50
2015,09,15,15,21,15.50
2015,09,15,15,22,15.50
2015,09,15,15,23,15.60
2015,09,15,15,24,15.50
2015,09,15,15,25,15.50
2015,09,15,15,26,15.50
2015,09,15,15,27,15.50
2015,09,15,15,28,15.60
2015,09,15,15,29,15.70
2015,09,15,15,30,15.60
2015,09,15,15,31,15.60
2015,09,15,15,32,15.60
2015,09,15,15,33,15.60
2015,09,15,15,34,15.60
2015,09,15,15,35,15.70
2015,09,15,15,36,15.70
2015,09,15,15,37,15.70
2015,09,15,15,38,15.80
2015,09,15,15,39,15.80
2015,09,15,15,40,15.80
2015,09,15,15,41,15.80
2015,09,15,15,42,15.90
2015,09,15,15,43,15.90
2015,09,15,15,44,16.00
2015,09,15,15,45,16.10
2015,09,15,15,46,16.10
2015,09,15,15,47,16.20
2015,09,15,15,48,16.20
2015,09,15,15,49,16.20
2015,09,15,15,50,16.10
2015,09,15,15,51,16.10
2015,09,15,15,52,16.00
2015,09,15,15,53,16.00
2015,09,15,15,54,15.90
2015,09,15,15,55,15.90
2015,09,15,15,56,15.90
2015,09,15,15,57,15.80
2015,09,15,15,58,15.80
2015,09,15,15,59,15.80
2015,09,15,16,00,15.70
2015,09,15,16,01,15.70
2015,09,15,16,02,15.70
2015,09,15,16,03,15.70
2015,09,15,16,04,15.60
2015,09,15,16,05,15.60
2015,09,15,16,06,15.60
2015,09,15,16,07,15.70
2015,09,15,16,08,15.70
2015,09,15,16,09,15.70
2015,09,15,16,10,15.70
2015,09,15,16,11,15.70
2015,09,15,16,12,15.60
2015,09,15,16,13,15.60
2015,09,15,16,14,15.70
2015,09,15,16,15,15.70
2015,09,15,16,16,15.70
2015,09,15,16,17,15.70
2015,09,15,16,18,15.70
2015,09,15,16,19,15.80
2015,09,15,16,20,15.80
2015,09,15,16,21,15.80
2015,09,15,16,22,15.80
2015,09,15,16,23,15.80
2015,09,15,16,24,15.70
2015,09,15,16,25,15.70
2015,09,15,16,26,15.70
2015,09,15,16,27,15.70
2015,09,15,16,28,15.70
2015,09,15,16,29,15.70
2015,09,15,16,30,15.80
2015,09,15,16,31,15.80
2015,09,15,16,32,15.80
2015,09,15,16,33,15.80
2015,09,15,16,34,15.80
2015,09,15,16,35,15.80
2015,09,15,16,36,15.80
2015,09,15,16,37,15.90
2015,09,15,16,38,15.90
2015,09,15,16,39,15.90
2015,09,15,16,40,15.90
2015,09,15,16,41,15.90
2015,09,15,16,42,15.80
2015,09,15,16,43,15.90
2015,09,15,16,44,15.90
2015,09,15,16,45,15.90
2015,09,15,16,46,15.90
2015,09,15,16,47,15.90
2015,09,15,16,48,15.80
2015,09,15,16,49,15.80
2015,09,15,16,50,15.70
2015,09,15,16,51,15.70
2015,09,15,16,52,15.60
2015,09,15,16,53,15.60
2015,09,15,16,54,15.70
2015,09,15,16,55,15.70
2015,09,15,16,56,15.70
2015,09,15,16,57,15.70
2015,09,15,16,58,15.70
2015,09,15,16,59,15.60
2015,09,15,17,00,15.60
2015,09,15,17,01,15.60
2015,09,15,17,02,15.50
2015,09,15,17,03,15.50
2015,09,15,17,04,15.40
2015,09,15,17,05,15.40
2015,09,15,17,06,15.40
2015,09,15,17,07,15.40
2015,09,15,17,08,15.40
2015,09,15,17,09,15.40
2015,09,15,17,10,15.40
2015,09,15,17,11,15.40
2015,09,15,17,12,15.40
2015,09,15,17,13,15.30
2015,09,15,17,14,15.30
2015,09,15,17,15,15.30
2015,09,15,17,16,15.30
2015,09,15,17,17,15.30
2015,09,15,17,18,15.20
2015,09,15,17,19,15.20
2015,09,15,17,20,15.10
2015,09,15,17,21,15.10
2015,09,15,17,22,15.10
2015,09,15,17,23,15.10
2015,09,15,17,24,15.10
2015,09,15,17,25,15.10
2015,09,15,17,26,15.00
2015,09,15,17,27,15.00
2015,09,15,17,28,15.00
2015,09,15,17,29,15.00
2015,09,15,17,30,15.00
2015,09,15,17,31,15.00
2015,09,15,17,32,15.00
2015,09,15,17,33,15.10
2015,09,15,17,34,15.10
2015,09,15,17,35,15.10
2015,09,15,17,36,15.10
2015,09,15,17,37,15.10
2015,09,15,17,38,15.10
2015,09,15,17,39,15.10
2015,09,15,17,40,15.00